Regional Weather Roundup
Issued by NWS

Home | Current Version | Previous Version | Text Only | Print | Product List | Glossary Off
Versions: 1 2 3 4 5 6 7 8 9 10 11 12 13 14 15 16 17 18 19 20 21 22 23 24 25 26 27 28 29 30 31 32 33 34 35 36 37 38 39 40 41 42 43 44 45 46 47 48 49 50

148
ASUS45 KTFX 300910
RWRMT
MONTANA REGIONAL WEATHER ROUNDUP
NATIONAL WEATHER SERVICE GREAT FALLS MT
300 AM MDT SAT JUL 30 2016

NOTE: "FAIR" INDICATES FEW OR NO CLOUDS BELOW 12000 FEET WITH NO
SIGNIFICANT WEATHER AND/OR OBSTRUCTIONS TO VISIBILITY.

MTZ001>007-043-301000-
WEST OF THE DIVIDE

CITY           SKY/WX    TMP DP  RH WIND       PRES   REMARKS
KALISPELL      CLEAR     56  53  90 VRB5      29.81F
MISSOULA       CLEAR     62  48  60 W3        29.88S
BUTTE          CLEAR     57  41  55 CALM      30.03F
MULLAN PASS    CLEAR     68  40  35 SW6       30.03F
DEER LODGE       N/A     54  46  76 CALM      29.99S
EUREKA           N/A     66  52  59 SE3       29.78F
HAMILTON         N/A     66  46  48 CALM      29.89S
LIBBY            N/A     61  48  63 CALM      29.80S
RONAN            N/A     57  51  80 MISG      29.89F
$$

MTZ008-052>055-301000-
SOUTHWEST MONTANA

CITY           SKY/WX    TMP DP  RH WIND       PRES   REMARKS
BOZEMAN        CLEAR     59  49  69 NW6       29.95F
DILLON         CLEAR     55  43  63 S7        29.99S
W YELLOWSTONE  CLOUDY    45  36  70 CALM      30.12F
THREE FORKS      N/A     57  37  47 CALM      29.95S
TWIN BRIDGES     N/A     59  41  51 SE2       29.98S
$$

MTZ009-010-012-014-046-048-049-054-301000-
EAST SLOPES AND CENTRAL MONTANA

CITY           SKY/WX    TMP DP  RH WIND       PRES   REMARKS
CUT BANK         N/A     61  50  67 SE5       29.88F
GREAT FALLS    CLEAR     64  48  56 SE8       29.88F
MALMSTROM AFB  CLEAR     63  51  63 SW7       29.88F
HELENA         CLEAR     67  46  47 CALM      29.92F
$$

MTZ011-013-016-021-045-047-050-051-301000-
NORTH CENTRAL MONTANA

CITY           SKY/WX    TMP DP  RH WIND       PRES   REMARKS
HAVRE          CLEAR     64  54  69 NE3       29.84F
CHINOOK          N/A     64  59  82 E6        29.86F
$$

MTZ017>020-022>027-061-062-301000-
NORTHEAST MONTANA

CITY           SKY/WX    TMP DP  RH WIND       PRES   REMARKS
GLASGOW        CLEAR     60  53  77 E8        29.90F
JORDAN           N/A     60  56  86 NE3       29.92F
SIDNEY         CLEAR     55  47  74 NW3       29.92F
WOLF POINT     CLEAR     59  53  80 CALM      29.91F
POPLAR           N/A     57  54  88 N3        29.91F
$$

MTZ028>42-056>058-301000-
SOUTHCENTRAL AND SOUTHEAST MONTANA

CITY           SKY/WX    TMP DP  RH WIND       PRES   REMARKS
BAKER          CLEAR     58  55  90 CALM      29.96F
BILLINGS       CLEAR     68  50  52 N9        29.93F
LIVINGSTON     CLOUDY    61  47  59 VRB3      29.99S
MILES CITY     CLEAR     63  53  70 N6        29.92F
FORSYTH          N/A     64  54  68 E3        29.91S
LAUREL           N/A     67  48  50 CALM      29.93F
ROUNDUP          N/A     63  51  64 CALM      29.87S
$$

REGIONAL REPORTS...DAKOTAS

CITY           SKY/WX    TMP DP  RH WIND       PRES   REMARKS
WILLISTON      CLEAR     58  54  86 NW3       29.92F
MINOT          CLEAR     62  58  86 CALM      29.91F
DICKINSON      CLEAR     56  55  97 N5        29.91F
BEACH            N/A     52  52 100 CALM      29.97F
CROSBY           N/A     59  59 100 S8        29.93F
WATFORD CITY     N/A    N/A N/A N/A MISG        N/A
BISMARCK       TSTM      65  62  90 NE8       29.94R
GRAND FORKS    CLOUDY    61  57  87 SW7       29.96S
FARGO          CLOUDY    69  61  75 S9        29.97F
BUFFALO SD       N/A     64  56  75 SW6       29.89F
RAPID CITY     CLEAR     58  55  90 SE5       29.98S
$$

REGIONAL REPORTS...WYOMING/IDAHO/WASHINGTON

CITY           SKY/WX    TMP DP  RH WIND       PRES   REMARKS
GILLETTE       CLEAR     62  58  86 S13       30.01F
SHERIDAN       CLEAR     58  48  69 S6        29.97F
BUFFALO WY     PTCLDY    63  48  58 SW7       30.05S
CODY           CLEAR     64  48  55 CALM      30.04S
YELLOWSTONE LA   N/A     46  41  82 CALM      30.23F
IDAHO FALLS    CLEAR     70  41  34 SW16      29.93R
SALMON         CLEAR     61  43  51 CALM      29.91S
BOISE          CLEAR     74  37  26 E6        29.81F
SPOKANE        CLEAR     74  43  32 SE8       29.76F
$$

REGIONAL REPORTS...ALBERTA

CITY           SKY/WX    TMP DP  RH WIND       PRES   REMARKS
EDMONTON       CLEAR     57  55  94 N5        29.80F
CALGARY        MOCLDY    61  55  82 S7        29.78F
LETHBRIDGE     CLEAR     61  54  77 S7        29.78F
MEDICINE HAT   CLEAR     61  54  77 NE5       29.80F
WATERTON GATE    N/A     55  48  76 SW2         N/A
CARDSTON         N/A     64  50  59 S3          N/A
MILK RIVER       N/A     59  52  77 S6          N/A
ONEFOUR          N/A     61  54  77 E12         N/A
$$

REGIONAL REPORTS...SASKATCHEWAN

CITY           SKY/WX    TMP DP  RH WIND       PRES   REMARKS
SWIFT CURRENT  CLEAR     57  55  94 S9        29.88F
REGINA         CLEAR     54  54 100 SE7       29.88F
SASKATOON      CLEAR     59  59 100 S5        29.84F
CYPRESS HILLS    N/A     59  52  77 SE8         N/A
VAL MARIE        N/A     54  52  94 E3          N/A
ROCKGLEN         N/A     55  52  88 S7          N/A
ASSINIBOIA       N/A     61  59  94 W12         N/A
$$




USA.gov is the U.S. government's official web portal to all federal, state and local government web resources and services.